contact:dominique.lefevre@mio.osupytheas.fr, maurice.libes@osupytheas.fr, didier.mallarino@osupytheas.fr
Project:EMSO http://www.emso-fr.org/EMSO-France
Depth: 2436.0 m
Title:EMSO Ligure Ouest : Data MII capteur MICROCAT
DateTime_Computer,Latitude,Longitude,Temperature,Conductivity,Pressure,DateTime_Instrument
DateTime_Computer,Latitude,Longitude,degC,S m-1,dbar,DateTime_Instrument
2019-08-30T00:02:10Z,42.805,6.029,13.2958,4.59958,2469.83,2019-8-30T02:02:32Z
2019-08-30T00:05:14Z,42.805,6.029,13.2957,4.59961,2469.806,2019-8-30T02:05:35Z
2019-08-30T00:08:17Z,42.805,6.029,13.2960,4.59960,2469.816,2019-8-30T02:08:39Z
2019-08-30T00:11:20Z,42.805,6.029,13.2958,4.59958,2469.821,2019-8-30T02:11:42Z
2019-08-30T00:14:23Z,42.805,6.029,13.2958,4.59958,2469.783,2019-8-30T02:14:45Z
2019-08-30T00:17:26Z,42.805,6.029,13.2955,4.59958,2469.783,2019-8-30T02:17:48Z
2019-08-30T00:20:30Z,42.805,6.029,13.2959,4.59960,2469.821,2019-8-30T02:20:51Z
2019-08-30T00:23:33Z,42.805,6.029,13.2956,4.59964,2469.806,2019-8-30T02:23:55Z
2019-08-30T00:26:36Z,42.805,6.029,13.2957,4.59960,2469.83,2019-8-30T02:26:58Z
2019-08-30T00:29:39Z,42.805,6.029,13.2958,4.59961,2469.806,2019-8-30T02:30:01Z
2019-08-30T00:32:42Z,42.805,6.029,13.2956,4.59962,2469.806,2019-8-30T02:33:04Z
2019-08-30T00:35:46Z,42.805,6.029,13.2959,4.59961,2469.806,2019-8-30T02:36:07Z
2019-08-30T00:38:49Z,42.805,6.029,13.2957,4.59959,2469.806,2019-8-30T02:39:11Z
2019-08-30T00:41:52Z,42.805,6.029,13.2958,4.59959,2469.806,2019-8-30T02:42:14Z
2019-08-30T00:44:55Z,42.805,6.029,13.2954,4.59961,2469.806,2019-8-30T02:45:17Z
2019-08-30T00:47:58Z,42.805,6.029,13.2956,4.59958,2469.783,2019-8-30T02:48:20Z
2019-08-30T00:51:02Z,42.805,6.029,13.2958,4.59960,2469.783,2019-8-30T02:51:23Z
2019-08-30T00:54:05Z,42.805,6.029,13.2954,4.59957,2469.821,2019-8-30T02:54:27Z
2019-08-30T00:57:08Z,42.805,6.029,13.2955,4.59961,2469.806,2019-8-30T02:57:30Z
2019-08-30T01:00:11Z,42.805,6.029,13.2961,4.59958,2469.76,2019-8-30T03:00:33Z
2019-08-30T01:03:14Z,42.805,6.029,13.2958,4.59958,2469.797,2019-8-30T03:03:36Z
2019-08-30T01:06:18Z,42.805,6.029,13.2960,4.59958,2469.783,2019-8-30T03:06:39Z
2019-08-30T01:09:21Z,42.805,6.029,13.2952,4.59958,2469.797,2019-8-30T03:09:43Z
2019-08-30T01:12:24Z,42.805,6.029,13.2960,4.59958,2469.773,2019-8-30T03:12:46Z
2019-08-30T01:15:27Z,42.805,6.029,13.2959,4.59961,2469.737,2019-8-30T03:15:49Z
2019-08-30T01:18:30Z,42.805,6.029,13.2958,4.59958,2469.806,2019-8-30T03:18:52Z
2019-08-30T01:21:33Z,42.805,6.029,13.2957,4.59959,2469.783,2019-8-30T03:21:55Z
2019-08-30T01:24:37Z,42.805,6.029,13.2955,4.59958,2469.783,2019-8-30T03:24:58Z
2019-08-30T01:27:40Z,42.805,6.029,13.2956,4.59956,2469.806,2019-8-30T03:28:02Z
2019-08-30T01:30:43Z,42.805,6.029,13.2957,4.59957,2469.806,2019-8-30T03:31:05Z
2019-08-30T01:33:46Z,42.805,6.029,13.2955,4.59957,2469.821,2019-8-30T03:34:08Z
2019-08-30T01:36:49Z,42.805,6.029,13.2956,4.59958,2469.783,2019-8-30T03:37:11Z
2019-08-30T01:39:53Z,42.805,6.029,13.2958,4.59956,2469.773,2019-8-30T03:40:14Z
2019-08-30T01:42:56Z,42.805,6.029,13.2957,4.59956,2469.797,2019-8-30T03:43:18Z
2019-08-30T01:45:59Z,42.805,6.029,13.2956,4.59958,2469.821,2019-8-30T03:46:21Z
2019-08-30T01:49:02Z,42.805,6.029,13.2957,4.59958,2469.783,2019-8-30T03:49:24Z
2019-08-30T01:52:05Z,42.805,6.029,13.2956,4.59958,2469.783,2019-8-30T03:52:27Z
2019-08-30T01:55:09Z,42.805,6.029,13.2958,4.59959,2469.783,2019-8-30T03:55:31Z
2019-08-30T01:58:12Z,42.805,6.029,13.2957,4.59956,2469.783,2019-8-30T03:58:34Z
2019-08-30T02:01:15Z,42.805,6.029,13.2958,4.59957,2469.783,2019-8-30T04:01:37Z
2019-08-30T02:04:18Z,42.805,6.029,13.2957,4.59956,2469.783,2019-8-30T04:04:40Z
2019-08-30T02:07:21Z,42.805,6.029,13.2959,4.59957,2469.783,2019-8-30T04:07:43Z
2019-08-30T02:10:25Z,42.805,6.029,13.2957,4.59957,2469.737,2019-8-30T04:10:46Z
2019-08-30T02:13:28Z,42.805,6.029,13.2957,4.59958,2469.769,2019-8-30T04:13:50Z
2019-08-30T02:16:31Z,42.805,6.029,13.2958,4.59957,2469.76,2019-8-30T04:16:53Z
2019-08-30T02:19:34Z,42.805,6.029,13.2960,4.59958,2469.797,2019-8-30T04:19:56Z
2019-08-30T02:22:37Z,42.805,6.029,13.2958,4.59956,2469.76,2019-8-30T04:22:59Z
2019-08-30T02:25:40Z,42.805,6.029,13.2961,4.59958,2469.806,2019-8-30T04:26:02Z
2019-08-30T02:28:44Z,42.805,6.029,13.2954,4.59957,2469.797,2019-8-30T04:29:05Z
2019-08-30T02:31:47Z,42.805,6.029,13.2958,4.59958,2469.806,2019-8-30T04:32:09Z
2019-08-30T02:34:50Z,42.805,6.029,13.2957,4.59960,2469.76,2019-8-30T04:35:12Z
2019-08-30T02:37:53Z,42.805,6.029,13.2961,4.59960,2469.797,2019-8-30T04:38:15Z
2019-08-30T02:40:57Z,42.805,6.029,13.2959,4.59959,2469.773,2019-8-30T04:41:18Z
2019-08-30T02:44:00Z,42.805,6.029,13.2955,4.59958,2469.773,2019-8-30T04:44:22Z
2019-08-30T02:47:03Z,42.805,6.029,13.2958,4.59958,2469.783,2019-8-30T04:47:25Z
2019-08-30T02:50:06Z,42.805,6.029,13.2957,4.59960,2469.806,2019-8-30T04:50:28Z
2019-08-30T02:53:09Z,42.805,6.029,13.2957,4.59960,2469.806,2019-8-30T04:53:31Z
2019-08-30T02:56:12Z,42.805,6.029,13.2959,4.59961,2469.806,2019-8-30T04:56:34Z
2019-08-30T02:59:16Z,42.805,6.029,13.2956,4.59958,2469.821,2019-8-30T04:59:37Z
2019-08-30T03:02:19Z,42.805,6.029,13.2957,4.59958,2469.806,2019-8-30T05:02:41Z
2019-08-30T03:05:22Z,42.805,6.029,13.2956,4.59961,2469.83,2019-8-30T05:05:44Z
2019-08-30T03:08:25Z,42.805,6.029,13.2958,4.59958,2469.83,2019-8-30T05:08:47Z
2019-08-30T03:11:28Z,42.805,6.029,13.2960,4.59958,2469.867,2019-8-30T05:11:50Z
2019-08-30T03:14:32Z,42.805,6.029,13.2958,4.59959,2469.821,2019-8-30T05:14:53Z
2019-08-30T03:17:35Z,42.805,6.029,13.2955,4.59959,2469.821,2019-8-30T05:17:57Z
2019-08-30T03:20:38Z,42.805,6.029,13.2956,4.59961,2469.806,2019-8-30T05:21:00Z
2019-08-30T03:23:41Z,42.805,6.029,13.2961,4.59960,2469.783,2019-8-30T05:24:03Z
2019-08-30T03:26:44Z,42.805,6.029,13.2958,4.59958,2469.806,2019-8-30T05:27:06Z
2019-08-30T03:29:48Z,42.805,6.029,13.2958,4.59960,2469.83,2019-8-30T05:30:09Z
2019-08-30T03:32:51Z,42.805,6.029,13.2955,4.59963,2469.83,2019-8-30T05:33:13Z
2019-08-30T03:35:54Z,42.805,6.029,13.2960,4.59962,2469.83,2019-8-30T05:36:16Z
2019-08-30T03:38:57Z,42.805,6.029,13.2957,4.59961,2469.806,2019-8-30T05:39:19Z
2019-08-30T03:42:00Z,42.805,6.029,13.2958,4.59959,2469.853,2019-8-30T05:42:22Z
2019-08-30T03:45:04Z,42.805,6.029,13.2956,4.59958,2469.83,2019-8-30T05:45:25Z
2019-08-30T03:48:07Z,42.805,6.029,13.2959,4.59960,2469.853,2019-8-30T05:48:29Z
2019-08-30T03:51:10Z,42.805,6.029,13.2958,4.59961,2469.83,2019-8-30T05:51:32Z
2019-08-30T03:54:13Z,42.805,6.029,13.2958,4.59958,2469.844,2019-8-30T05:54:35Z
2019-08-30T03:57:16Z,42.805,6.029,13.2959,4.59961,2469.853,2019-8-30T05:57:38Z
2019-08-30T04:00:20Z,42.805,6.029,13.2958,4.59966,2469.83,2019-8-30T06:00:41Z
2019-08-30T04:03:23Z,42.805,6.029,13.2958,4.59961,2469.853,2019-8-30T06:03:45Z
2019-08-30T04:06:26Z,42.805,6.029,13.2957,4.59958,2469.853,2019-8-30T06:06:48Z
2019-08-30T04:09:29Z,42.805,6.029,13.2958,4.59963,2469.844,2019-8-30T06:09:51Z
2019-08-30T04:12:32Z,42.805,6.029,13.2958,4.59961,2469.876,2019-8-30T06:12:54Z
2019-08-30T04:15:35Z,42.805,6.029,13.2960,4.59961,2469.876,2019-8-30T06:15:57Z
2019-08-30T04:18:39Z,42.805,6.029,13.2957,4.59960,2469.853,2019-8-30T06:19:01Z
2019-08-30T04:21:42Z,42.805,6.029,13.2959,4.59961,2469.876,2019-8-30T06:22:04Z
2019-08-30T04:24:45Z,42.805,6.029,13.2957,4.59961,2469.876,2019-8-30T06:25:07Z
2019-08-30T04:27:48Z,42.805,6.029,13.2960,4.59958,2469.914,2019-8-30T06:28:10Z
2019-08-30T04:30:51Z,42.805,6.029,13.2956,4.59958,2469.876,2019-8-30T06:31:13Z
2019-08-30T04:33:55Z,42.805,6.029,13.2955,4.59958,2469.923,2019-8-30T06:34:16Z
2019-08-30T04:36:58Z,42.805,6.029,13.2958,4.59958,2469.876,2019-8-30T06:37:20Z
2019-08-30T04:40:01Z,42.805,6.029,13.2959,4.59958,2469.9,2019-8-30T06:40:23Z
2019-08-30T04:43:04Z,42.805,6.029,13.2956,4.59960,2469.914,2019-8-30T06:43:26Z
2019-08-30T04:46:07Z,42.805,6.029,13.2960,4.59961,2469.914,2019-8-30T06:46:29Z
2019-08-30T04:49:11Z,42.805,6.029,13.2957,4.59960,2469.876,2019-8-30T06:49:33Z
2019-08-30T04:52:14Z,42.805,6.029,13.2961,4.59962,2469.914,2019-8-30T06:52:36Z
2019-08-30T04:55:17Z,42.805,6.029,13.2959,4.59964,2469.914,2019-8-30T06:55:39Z
2019-08-30T04:58:20Z,42.805,6.029,13.2957,4.59962,2469.9,2019-8-30T06:58:42Z
2019-08-30T05:01:23Z,42.805,6.029,13.2958,4.59961,2469.9,2019-8-30T07:01:45Z
2019-08-30T05:04:27Z,42.805,6.029,13.2958,4.59962,2469.947,2019-8-30T07:04:48Z
2019-08-30T05:07:30Z,42.805,6.029,13.2958,4.59961,2469.914,2019-8-30T07:07:52Z
2019-08-30T05:10:33Z,42.805,6.029,13.2956,4.59961,2469.886,2019-8-30T07:10:55Z
2019-08-30T05:13:36Z,42.805,6.029,13.2958,4.59962,2469.923,2019-8-30T07:13:58Z
2019-08-30T05:16:39Z,42.805,6.029,13.2958,4.59961,2469.923,2019-8-30T07:17:01Z
2019-08-30T05:19:43Z,42.805,6.029,13.2957,4.59961,2469.933,2019-8-30T07:20:04Z
2019-08-30T05:22:46Z,42.805,6.029,13.2957,4.59959,2469.947,2019-8-30T07:23:08Z
2019-08-30T05:25:49Z,42.805,6.029,13.2955,4.59961,2469.9,2019-8-30T07:26:11Z
2019-08-30T05:28:52Z,42.805,6.029,13.2958,4.59959,2469.947,2019-8-30T07:29:14Z
2019-08-30T05:31:55Z,42.805,6.029,13.2961,4.59961,2469.914,2019-8-30T07:32:17Z
2019-08-30T05:34:59Z,42.805,6.029,13.2957,4.59960,2469.923,2019-8-30T07:35:20Z
2019-08-30T05:38:02Z,42.805,6.029,13.2956,4.59961,2469.947,2019-8-30T07:38:24Z
2019-08-30T05:41:05Z,42.805,6.029,13.2960,4.59961,2469.923,2019-8-30T07:41:27Z
2019-08-30T05:44:08Z,42.805,6.029,13.2958,4.59964,2469.97,2019-8-30T07:44:30Z
2019-08-30T05:47:11Z,42.805,6.029,13.2960,4.59961,2469.923,2019-8-30T07:47:33Z
2019-08-30T05:50:14Z,42.805,6.029,13.2956,4.59963,2469.933,2019-8-30T07:50:36Z
2019-08-30T05:53:18Z,42.805,6.029,13.2961,4.59961,2469.947,2019-8-30T07:53:40Z
2019-08-30T05:56:21Z,42.805,6.029,13.2955,4.59961,2469.947,2019-8-30T07:56:43Z
2019-08-30T05:59:24Z,42.805,6.029,13.2956,4.59964,2469.937,2019-8-30T07:59:46Z
2019-08-30T06:02:27Z,42.805,6.029,13.2957,4.59961,2469.923,2019-8-30T08:02:49Z
2019-08-30T06:05:30Z,42.805,6.029,13.2956,4.59962,2469.97,2019-8-30T08:05:52Z
2019-08-30T06:08:34Z,42.805,6.029,13.2964,4.59964,2469.96,2019-8-30T08:08:55Z
2019-08-30T06:11:37Z,42.805,6.029,13.2959,4.59961,2469.984,2019-8-30T08:11:59Z
2019-08-30T06:14:40Z,42.805,6.029,13.2958,4.59959,2469.96,2019-8-30T08:15:02Z
2019-08-30T06:17:43Z,42.805,6.029,13.2957,4.59961,2469.96,2019-8-30T08:18:05Z
2019-08-30T06:20:46Z,42.805,6.029,13.2962,4.59960,2469.947,2019-8-30T08:21:08Z
2019-08-30T06:23:50Z,42.805,6.029,13.2956,4.59961,2469.947,2019-8-30T08:24:11Z
2019-08-30T06:26:53Z,42.805,6.029,13.2958,4.59958,2469.9,2019-8-30T08:27:15Z
2019-08-30T06:29:56Z,42.805,6.029,13.2956,4.59966,2469.984,2019-8-30T08:30:18Z
2019-08-30T06:32:59Z,42.805,6.029,13.2962,4.59960,2469.984,2019-8-30T08:33:21Z
2019-08-30T06:36:02Z,42.805,6.029,13.2957,4.59961,2469.96,2019-8-30T08:36:24Z
2019-08-30T06:39:05Z,42.805,6.029,13.2958,4.59964,2469.947,2019-8-30T08:39:27Z
2019-08-30T06:42:09Z,42.805,6.029,13.2961,4.59961,2469.947,2019-8-30T08:42:31Z
2019-08-30T06:45:12Z,42.805,6.029,13.2958,4.59958,2469.96,2019-8-30T08:45:34Z
2019-08-30T06:48:15Z,42.805,6.029,13.2957,4.59964,2469.947,2019-8-30T08:48:37Z
2019-08-30T06:51:18Z,42.805,6.029,13.2957,4.59965,2469.947,2019-8-30T08:51:40Z
2019-08-30T06:54:21Z,42.805,6.029,13.2960,4.59960,2469.97,2019-8-30T08:54:43Z
2019-08-30T06:57:25Z,42.805,6.029,13.2958,4.59959,2469.984,2019-8-30T08:57:46Z
2019-08-30T07:00:28Z,42.805,6.029,13.2958,4.59958,2469.993,2019-8-30T09:00:50Z
2019-08-30T07:03:31Z,42.805,6.029,13.2960,4.59963,2469.947,2019-8-30T09:03:53Z
2019-08-30T07:06:34Z,42.805,6.029,13.2959,4.59962,2469.96,2019-8-30T09:06:56Z
2019-08-30T07:09:37Z,42.805,6.029,13.2954,4.59958,2469.97,2019-8-30T09:09:59Z
2019-08-30T07:12:41Z,42.805,6.029,13.2956,4.59961,2469.947,2019-8-30T09:13:03Z
2019-08-30T07:15:44Z,42.805,6.029,13.2961,4.59961,2469.96,2019-8-30T09:16:06Z
2019-08-30T07:18:47Z,42.805,6.029,13.2955,4.59959,2469.947,2019-8-30T09:19:09Z
2019-08-30T07:21:50Z,42.805,6.029,13.2957,4.59959,2469.984,2019-8-30T09:22:12Z
2019-08-30T07:24:53Z,42.805,6.029,13.2959,4.59959,2469.947,2019-8-30T09:25:15Z
2019-08-30T07:27:57Z,42.805,6.029,13.2957,4.59958,2469.984,2019-8-30T09:28:18Z
2019-08-30T07:31:00Z,42.805,6.029,13.2962,4.59959,2469.96,2019-8-30T09:31:22Z
2019-08-30T07:34:03Z,42.805,6.029,13.2962,4.59959,2469.97,2019-8-30T09:34:25Z
2019-08-30T07:37:06Z,42.805,6.029,13.2955,4.59964,2469.923,2019-8-30T09:37:28Z
2019-08-30T07:40:09Z,42.805,6.029,13.2958,4.59961,2469.937,2019-8-30T09:40:31Z
2019-08-30T07:43:13Z,42.805,6.029,13.2954,4.59958,2469.947,2019-8-30T09:43:34Z
2019-08-30T07:46:16Z,42.805,6.029,13.2961,4.59959,2469.9,2019-8-30T09:46:38Z
2019-08-30T07:49:19Z,42.805,6.029,13.2957,4.59964,2469.984,2019-8-30T09:49:41Z
2019-08-30T07:52:22Z,42.805,6.029,13.2957,4.59961,2469.97,2019-8-30T09:52:44Z
2019-08-30T07:55:25Z,42.805,6.029,13.2957,4.59956,2469.97,2019-8-30T09:55:47Z
2019-08-30T07:58:28Z,42.805,6.029,13.2957,4.59959,2469.96,2019-8-30T09:58:50Z
2019-08-30T08:01:32Z,42.805,6.029,13.2957,4.59958,2469.937,2019-8-30T10:01:53Z
2019-08-30T08:04:35Z,42.805,6.029,13.2955,4.59959,2469.937,2019-8-30T10:04:57Z
2019-08-30T08:07:38Z,42.805,6.029,13.2957,4.59958,2469.937,2019-8-30T10:08:00Z
2019-08-30T08:10:41Z,42.805,6.029,13.2956,4.59961,2469.96,2019-8-30T10:11:03Z
2019-08-30T08:13:44Z,42.805,6.029,13.2961,4.59958,2469.984,2019-8-30T10:14:06Z
2019-08-30T08:16:48Z,42.805,6.029,13.2958,4.59958,2469.9,2019-8-30T10:17:09Z
2019-08-30T08:19:51Z,42.805,6.029,13.2957,4.59958,2469.96,2019-8-30T10:20:13Z
2019-08-30T08:22:54Z,42.805,6.029,13.2958,4.59964,2469.923,2019-8-30T10:23:16Z
2019-08-30T08:25:57Z,42.805,6.029,13.2955,4.59960,2469.947,2019-8-30T10:26:19Z
2019-08-30T08:29:00Z,42.805,6.029,13.2958,4.59958,2469.909,2019-8-30T10:29:22Z
2019-08-30T08:32:04Z,42.805,6.029,13.2957,4.59959,2469.923,2019-8-30T10:32:25Z
2019-08-30T08:35:07Z,42.805,6.029,13.2958,4.59959,2469.876,2019-8-30T10:35:29Z
2019-08-30T08:38:10Z,42.805,6.029,13.2963,4.59958,2469.923,2019-8-30T10:38:32Z
2019-08-30T08:41:13Z,42.805,6.029,13.2955,4.59959,2469.937,2019-8-30T10:41:35Z
2019-08-30T08:44:16Z,42.805,6.029,13.2957,4.59963,2469.937,2019-8-30T10:44:38Z
2019-08-30T08:47:20Z,42.805,6.029,13.2958,4.59960,2469.923,2019-8-30T10:47:41Z
2019-08-30T08:50:23Z,42.805,6.029,13.2955,4.59960,2469.914,2019-8-30T10:50:45Z
2019-08-30T08:53:26Z,42.805,6.029,13.2955,4.59958,2469.923,2019-8-30T10:53:48Z
2019-08-30T08:56:29Z,42.805,6.029,13.2958,4.59961,2469.914,2019-8-30T10:56:51Z
2019-08-30T08:59:32Z,42.805,6.029,13.2958,4.59963,2469.923,2019-8-30T10:59:54Z
2019-08-30T09:02:36Z,42.805,6.029,13.2958,4.59957,2469.923,2019-8-30T11:02:57Z
2019-08-30T09:05:39Z,42.805,6.029,13.2956,4.59958,2469.923,2019-8-30T11:06:01Z
2019-08-30T09:08:42Z,42.805,6.029,13.2953,4.59958,2469.914,2019-8-30T11:09:04Z
2019-08-30T09:11:45Z,42.805,6.029,13.2958,4.59958,2469.89,2019-8-30T11:12:07Z
2019-08-30T09:14:48Z,42.805,6.029,13.2954,4.59961,2469.89,2019-8-30T11:15:10Z
2019-08-30T09:17:52Z,42.805,6.029,13.2955,4.59961,2469.914,2019-8-30T11:18:13Z
2019-08-30T09:20:55Z,42.805,6.029,13.2955,4.59959,2469.923,2019-8-30T11:21:17Z
2019-08-30T09:23:58Z,42.805,6.029,13.2960,4.59962,2469.914,2019-8-30T11:24:20Z
2019-08-30T09:27:01Z,42.805,6.029,13.2957,4.59960,2469.876,2019-8-30T11:27:23Z
2019-08-30T09:30:04Z,42.805,6.029,13.2957,4.59960,2469.923,2019-8-30T11:30:26Z
2019-08-30T09:33:08Z,42.805,6.029,13.2957,4.59958,2469.886,2019-8-30T11:33:29Z
2019-08-30T09:36:11Z,42.805,6.029,13.2954,4.59958,2469.853,2019-8-30T11:36:33Z
2019-08-30T09:39:14Z,42.805,6.029,13.2957,4.59959,2469.876,2019-8-30T11:39:36Z
2019-08-30T09:42:17Z,42.805,6.029,13.2960,4.59961,2469.853,2019-8-30T11:42:39Z
2019-08-30T09:45:20Z,42.805,6.029,13.2957,4.59961,2469.876,2019-8-30T11:45:42Z
2019-08-30T09:48:24Z,42.805,6.029,13.2952,4.59964,2469.867,2019-8-30T11:48:45Z
2019-08-30T09:51:27Z,42.805,6.029,13.2957,4.59961,2469.83,2019-8-30T11:51:49Z
2019-08-30T09:54:30Z,42.805,6.029,13.2956,4.59963,2469.876,2019-8-30T11:54:52Z
2019-08-30T09:57:33Z,42.805,6.029,13.2958,4.59967,2469.876,2019-8-30T11:57:55Z
2019-08-30T10:00:36Z,42.805,6.029,13.2958,4.59966,2469.876,2019-8-30T12:00:58Z
2019-08-30T10:03:40Z,42.805,6.029,13.2957,4.59963,2469.853,2019-8-30T12:04:01Z
2019-08-30T10:06:43Z,42.805,6.029,13.2958,4.59964,2469.821,2019-8-30T12:07:05Z
2019-08-30T10:09:46Z,42.805,6.029,13.2958,4.59966,2469.867,2019-8-30T12:10:08Z
2019-08-30T10:12:49Z,42.805,6.029,13.2960,4.59961,2469.844,2019-8-30T12:13:11Z
2019-08-30T10:15:52Z,42.805,6.029,13.2960,4.59961,2469.83,2019-8-30T12:16:14Z
2019-08-30T10:18:56Z,42.805,6.029,13.2957,4.59963,2469.867,2019-8-30T12:19:17Z
2019-08-30T10:21:59Z,42.805,6.029,13.2957,4.59962,2469.853,2019-8-30T12:22:21Z
2019-08-30T10:25:02Z,42.805,6.029,13.2954,4.59962,2469.844,2019-8-30T12:25:24Z
2019-08-30T10:28:05Z,42.805,6.029,13.2957,4.59960,2469.853,2019-8-30T12:28:27Z
2019-08-30T10:31:08Z,42.805,6.029,13.2953,4.59961,2469.844,2019-8-30T12:31:30Z
2019-08-30T10:34:12Z,42.805,6.029,13.2955,4.59960,2469.821,2019-8-30T12:34:33Z
2019-08-30T10:37:15Z,42.805,6.029,13.2957,4.59958,2469.867,2019-8-30T12:37:37Z
2019-08-30T10:40:18Z,42.805,6.029,13.2955,4.59960,2469.821,2019-8-30T12:40:40Z
2019-08-30T10:43:21Z,42.805,6.029,13.2953,4.59958,2469.844,2019-8-30T12:43:43Z
2019-08-30T10:46:24Z,42.805,6.029,13.2958,4.59965,2469.83,2019-8-30T12:46:46Z
2019-08-30T10:49:28Z,42.805,6.029,13.2955,4.59964,2469.821,2019-8-30T12:49:49Z
2019-08-30T10:52:31Z,42.805,6.029,13.2958,4.59968,2469.867,2019-8-30T12:52:53Z
2019-08-30T10:55:34Z,42.805,6.029,13.2957,4.59959,2469.844,2019-8-30T12:55:56Z
2019-08-30T10:58:37Z,42.805,6.029,13.2958,4.59960,2469.83,2019-8-30T12:58:59Z
2019-08-30T11:01:40Z,42.805,6.029,13.2954,4.59966,2469.83,2019-8-30T13:02:02Z
2019-08-30T11:04:44Z,42.805,6.029,13.2957,4.59967,2469.806,2019-8-30T13:05:06Z
2019-08-30T11:07:47Z,42.805,6.029,13.2958,4.59960,2469.844,2019-8-30T13:08:09Z
2019-08-30T11:10:50Z,42.805,6.029,13.2956,4.59966,2469.797,2019-8-30T13:11:12Z
2019-08-30T11:13:53Z,42.805,6.029,13.2956,4.59965,2469.806,2019-8-30T13:14:15Z
2019-08-30T11:16:56Z,42.805,6.029,13.2957,4.59970,2469.83,2019-8-30T13:17:18Z
2019-08-30T11:20:00Z,42.805,6.029,13.2957,4.59962,2469.797,2019-8-30T13:20:22Z
2019-08-30T11:23:03Z,42.805,6.029,13.2953,4.59964,2469.821,2019-8-30T13:23:25Z
2019-08-30T11:26:06Z,42.805,6.029,13.2959,4.59961,2469.797,2019-8-30T13:26:28Z
2019-08-30T11:29:09Z,42.805,6.029,13.2958,4.59968,2469.783,2019-8-30T13:29:31Z
2019-08-30T11:32:12Z,42.805,6.029,13.2960,4.59970,2469.797,2019-8-30T13:32:34Z
2019-08-30T11:35:16Z,42.805,6.029,13.2961,4.59967,2469.783,2019-8-30T13:35:37Z
2019-08-30T11:38:19Z,42.805,6.029,13.2963,4.59973,2469.783,2019-8-30T13:38:41Z
2019-08-30T11:41:22Z,42.805,6.029,13.2958,4.59973,2469.76,2019-8-30T13:41:44Z
2019-08-30T11:44:25Z,42.805,6.029,13.2958,4.59980,2469.773,2019-8-30T13:44:47Z
2019-08-30T11:47:28Z,42.805,6.029,13.2961,4.59974,2469.737,2019-8-30T13:47:50Z
2019-08-30T11:50:32Z,42.805,6.029,13.2957,4.59973,2469.76,2019-8-30T13:50:53Z
2019-08-30T11:53:35Z,42.805,6.029,13.2954,4.59966,2469.797,2019-8-30T13:53:57Z
2019-08-30T11:56:38Z,42.805,6.029,13.2955,4.59966,2469.783,2019-8-30T13:57:00Z
2019-08-30T11:59:41Z,42.805,6.029,13.2956,4.59970,2469.76,2019-8-30T14:00:03Z
2019-08-30T12:02:44Z,42.805,6.029,13.2956,4.59974,2469.76,2019-8-30T14:03:06Z
2019-08-30T12:05:48Z,42.805,6.029,13.2955,4.59976,2469.783,2019-8-30T14:06:10Z
2019-08-30T12:08:51Z,42.805,6.029,13.2959,4.59968,2469.76,2019-8-30T14:09:13Z
2019-08-30T12:11:54Z,42.805,6.029,13.2952,4.59972,2469.773,2019-8-30T14:12:16Z
2019-08-30T12:14:57Z,42.805,6.029,13.2956,4.59969,2469.76,2019-8-30T14:15:19Z
2019-08-30T12:18:00Z,42.805,6.029,13.2957,4.59972,2469.737,2019-8-30T14:18:22Z
2019-08-30T12:21:04Z,42.805,6.029,13.2957,4.59971,2469.797,2019-8-30T14:21:25Z
2019-08-30T12:24:07Z,42.805,6.029,13.2957,4.59976,2469.76,2019-8-30T14:24:29Z
2019-08-30T12:27:10Z,42.805,6.029,13.2959,4.59973,2469.76,2019-8-30T14:27:32Z
2019-08-30T12:30:13Z,42.805,6.029,13.2961,4.59976,2469.746,2019-8-30T14:30:35Z
2019-08-30T12:33:16Z,42.805,6.029,13.2964,4.59983,2469.773,2019-8-30T14:33:38Z
2019-08-30T12:36:20Z,42.805,6.029,13.2957,4.59984,2469.773,2019-8-30T14:36:41Z
2019-08-30T12:39:23Z,42.805,6.029,13.2958,4.59976,2469.76,2019-8-30T14:39:45Z
2019-08-30T12:42:26Z,42.805,6.029,13.2957,4.59977,2469.773,2019-8-30T14:42:48Z
2019-08-30T12:45:29Z,42.805,6.029,13.2957,4.59975,2469.773,2019-8-30T14:45:51Z
2019-08-30T12:48:32Z,42.805,6.029,13.2962,4.59972,2469.737,2019-8-30T14:48:54Z
2019-08-30T12:51:36Z,42.805,6.029,13.2961,4.59977,2469.737,2019-8-30T14:51:58Z
2019-08-30T12:54:39Z,42.805,6.029,13.2960,4.59985,2469.75,2019-8-30T14:55:01Z
2019-08-30T12:57:42Z,42.805,6.029,13.2957,4.59981,2469.75,2019-8-30T14:58:04Z
2019-08-30T13:00:45Z,42.805,6.029,13.2960,4.59974,2469.75,2019-8-30T15:01:07Z
2019-08-30T13:03:48Z,42.805,6.029,13.2955,4.59973,2469.713,2019-8-30T15:04:10Z
2019-08-30T13:06:52Z,42.805,6.029,13.2957,4.59970,2469.713,2019-8-30T15:07:13Z
2019-08-30T13:09:55Z,42.805,6.029,13.2961,4.59969,2469.783,2019-8-30T15:10:17Z
2019-08-30T13:12:58Z,42.805,6.029,13.2956,4.59966,2469.773,2019-8-30T15:13:20Z
2019-08-30T13:16:01Z,42.805,6.029,13.2958,4.59963,2469.737,2019-8-30T15:16:23Z
2019-08-30T13:19:04Z,42.805,6.029,13.2957,4.59967,2469.76,2019-8-30T15:19:26Z
2019-08-30T13:22:08Z,42.805,6.029,13.2957,4.59967,2469.75,2019-8-30T15:22:30Z
2019-08-30T13:25:11Z,42.805,6.029,13.2954,4.59971,2469.75,2019-8-30T15:25:33Z
2019-08-30T13:28:14Z,42.805,6.029,13.2955,4.59964,2469.76,2019-8-30T15:28:36Z
2019-08-30T13:31:17Z,42.805,6.029,13.2959,4.59967,2469.76,2019-8-30T15:31:39Z
2019-08-30T13:34:20Z,42.805,6.029,13.2958,4.59963,2469.75,2019-8-30T15:34:42Z
2019-08-30T13:37:24Z,42.805,6.029,13.2956,4.59958,2469.713,2019-8-30T15:37:45Z
2019-08-30T13:40:27Z,42.805,6.029,13.2957,4.59963,2469.773,2019-8-30T15:40:49Z
2019-08-30T13:43:30Z,42.805,6.029,13.2957,4.59964,2469.737,2019-8-30T15:43:52Z
2019-08-30T13:46:33Z,42.805,6.029,13.2961,4.59966,2469.737,2019-8-30T15:46:55Z
2019-08-30T13:49:36Z,42.805,6.029,13.2957,4.59961,2469.76,2019-8-30T15:49:58Z
2019-08-30T13:52:40Z,42.805,6.029,13.2958,4.59967,2469.727,2019-8-30T15:53:01Z
2019-08-30T13:55:43Z,42.805,6.029,13.2957,4.59964,2469.75,2019-8-30T15:56:05Z
2019-08-30T13:58:46Z,42.805,6.029,13.2957,4.59967,2469.773,2019-8-30T15:59:08Z
2019-08-30T14:01:49Z,42.805,6.029,13.2953,4.59968,2469.773,2019-8-30T16:02:11Z
2019-08-30T14:04:53Z,42.805,6.029,13.2957,4.59970,2469.76,2019-8-30T16:05:15Z
2019-08-30T14:07:56Z,42.805,6.029,13.2958,4.59961,2469.737,2019-8-30T16:08:18Z
2019-08-30T14:10:59Z,42.805,6.029,13.2956,4.59961,2469.773,2019-8-30T16:11:21Z
2019-08-30T14:14:02Z,42.805,6.029,13.2958,4.59966,2469.737,2019-8-30T16:14:24Z
2019-08-30T14:17:06Z,42.805,6.029,13.2957,4.59966,2469.75,2019-8-30T16:17:27Z
2019-08-30T14:20:09Z,42.805,6.029,13.2954,4.59964,2469.773,2019-8-30T16:20:31Z
2019-08-30T14:23:12Z,42.805,6.029,13.2957,4.59961,2469.773,2019-8-30T16:23:34Z
2019-08-30T14:26:15Z,42.805,6.029,13.2956,4.59960,2469.713,2019-8-30T16:26:37Z
2019-08-30T14:29:18Z,42.805,6.029,13.2958,4.59963,2469.773,2019-8-30T16:29:40Z
2019-08-30T14:32:22Z,42.805,6.029,13.2955,4.59961,2469.75,2019-8-30T16:32:44Z
2019-08-30T14:35:25Z,42.805,6.029,13.2957,4.59962,2469.76,2019-8-30T16:35:47Z
2019-08-30T14:38:28Z,42.805,6.029,13.2957,4.59961,2469.773,2019-8-30T16:38:50Z
2019-08-30T14:41:31Z,42.805,6.029,13.2956,4.59961,2469.737,2019-8-30T16:41:53Z
2019-08-30T14:44:34Z,42.805,6.029,13.2954,4.59961,2469.76,2019-8-30T16:44:56Z
2019-08-30T14:47:38Z,42.805,6.029,13.2957,4.59961,2469.797,2019-8-30T16:48:00Z
2019-08-30T14:50:41Z,42.805,6.029,13.2952,4.59958,2469.75,2019-8-30T16:51:03Z
2019-08-30T14:53:44Z,42.805,6.029,13.2961,4.59960,2469.773,2019-8-30T16:54:06Z
2019-08-30T14:56:47Z,42.805,6.029,13.2958,4.59964,2469.783,2019-8-30T16:57:09Z
2019-08-30T14:59:50Z,42.805,6.029,13.2953,4.59964,2469.806,2019-8-30T17:00:12Z
2019-08-30T15:02:54Z,42.805,6.029,13.2961,4.59961,2469.76,2019-8-30T17:03:16Z
2019-08-30T15:05:57Z,42.805,6.029,13.2958,4.59957,2469.783,2019-8-30T17:06:19Z
2019-08-30T15:09:00Z,42.805,6.029,13.2954,4.59961,2469.783,2019-8-30T17:09:22Z
2019-08-30T15:12:03Z,42.805,6.029,13.2953,4.59958,2469.76,2019-8-30T17:12:25Z